Regional Weather Roundup
Issued by NWS Jackson, KY

Home | Current Version | Previous Version | Text Only | Print | Product List | Glossary Off
Versions: 1 2 3 4 5 6 7 8 9 10 11 12 13 14 15 16 17 18 19 20 21 22 23 24 25 26 27 28

000
ASUS43 KJKL 211510
RWRJKL

EAST KENTUCKY HOURLY WEATHER ROUNDUP
NATIONAL WEATHER SERVICE JACKSON KY
1100 AM EDT SUN MAY 21 2017

NOTE: "FAIR" INDICATES FEW OR NO CLOUDS BELOW 12,000 FEET WITH
NO SIGNIFICANT WEATHER AND/OR OBSTRUCTIONS TO VISIBILITY.

* THESE REPORTS ARE NOT UNDER NWS QUALITY CONTROL AND MAY NOT
  REPORT WEATHER SUCH AS PRECIPITATION AND FOG.

KYZ079-080-083-085-087-088-110-112-115-119-120-211600
...EASTERN KENTUCKY...

CITY           SKY/WX    TMP DP  RH WIND       PRES   REMARKS
JACKSON        LGT RAIN  66  65  96 VRB3      30.14R
LONDON         LGT RAIN  68  64  87 S5        30.12S
SOMERSET*      LGT RAIN  68  66  94 S3        30.12S
WILLIAMSBURG*  PTSUNNY   68  68 100 S8        30.13S
MIDDLESBORO*   LGT RAIN  68  66  93 CALM      30.16S
HARLAN APT*    CLOUDY    66  63  88 CALM      30.17R
PIKE CO APT*   RAIN      66  66 100 CALM      30.15S
BIG SANDY APT* RAIN      68  68 100 S5        30.14S
MOREHEAD APT*  LGT RAIN  66  66 100 S10       30.12S
$$

KYZ035-036-041-042-044-050-067-078-099-211600
...CENTRAL KENTUCKY...

CITY           SKY/WX    TMP DP  RH WIND       PRES   REMARKS
MT STERLING*   RAIN      68  66  94 SW6       30.12S
FLEMING/MASON* DRIZZLE   67  66  96 S10       30.10R
DANVILLE*      CLOUDY    70  64  83 S8        30.10S
LEXINGTON      CLOUDY    70  65  84 S14       30.08S
FRANKFORT      CLOUDY    70  65  84 S9        30.05S
LOUISVILLE     CLOUDY    72  68  87 S12       30.03R
LEBANON*       CLOUDY    68  68 100 S6        30.08S
GLASGOW*       CLOUDY    71  69  96 SW6       30.08S
BOWLING GREEN  CLOUDY    74  69  85 SW7       30.07S
$$

KYZ091>093-OHZ055-061-077-WVZ005-015-034-035-042-211600
...SOUTHERN OHIO/WEST VIRGINIA...

CITY           SKY/WX    TMP DP  RH WIND       PRES   REMARKS
COVINGTON      CLOUDY    70  66  87 S15       30.03S
COLUMBUS       LGT RAIN  68  68 100 S8        30.04F
DAYTON         CLOUDY    69  65  86 S12       30.02F
WILMINGTON     CLOUDY    67  66  97 SW12      30.04S
HUNTINGTON     RAIN      67  65  93 SW8       30.10S FOG
CHARLESTON     LGT RAIN  70  66  87 S6        30.12S
PINEVILLE*     CLOUDY    72  66  81 MISG      30.22S
BECKLEY        LGT RAIN  63  58  83 S9G18     30.21S
BLUEFIELD      PTSUNNY   60  58  92 SE8       30.24F
LOGAN CO APT*    N/A     68  64  88 CALM      30.15S
$$

VAZ002-007-008-TNZ017-027-036-066-071-211600
...SOUTHWEST VIRGINIA/EAST TENNESSEE...

CITY           SKY/WX    TMP DP  RH WIND       PRES   REMARKS
WISE*          DRIZZLE   64  64 100 S5        30.22S
JONESVILLE*    LGT RAIN  68  66  94 CALM      30.19S
ABINGDON*      LGT RAIN  69  64  84 W6        30.22S
BRISTOL        LGT RAIN  67  64  90 SE5       30.19S
MORRISTOWN*    SUNNY     68  66  94 SE5       30.15F
SEVIERVILLE*   MOSUNNY   66  64  94 CALM      30.14S
KNOXVILLE      LGT RAIN  68  65  90 CALM      30.14S FOG
LAFOLLETTE*    CLOUDY    68  66  94 CALM      30.17S
OAK RIDGE      LGT RAIN  69  66  90 E3        30.15S
CROSSVILLE     CLOUDY    67  63  87 SE5       30.16S
NASHVILLE      CLOUDY    72  68  87 S7        30.09R
$$

...KEY TO REMARKS...
VSB - VISIBILITY IN MILES
WCI - WIND CHILL INDEX
HX  - HEAT INDEX

$$




USA.gov is the U.S. government's official web portal to all federal, state and local government web resources and services.